This demonstration page uses our WeatherBlox Daily Observations layout. Learn more.

36.19886, -115.1175

Hourly Observations for June 6, 2018

Temp ( °F °C ) Dew Point ( °F °C ) Humidity (%) Winds ( mph kmh ) Pressure ( in mb ) Visibility ( mi km ) Precip ( " mm )
12:53 am 00:53 Clear 85 29.4 28 -2.2 13 13 SSE 6 9 29.68 1005 10 16.09344 0 0
1:53 am 01:53 Clear 80 26.7 30 -1.1 16 16 SSE 3 6 29.68 1005 10 16.09344 0 0
2:53 am 02:53 Clear 79 26.1 33 0.6 19 19 Calm 29.68 1005 10 16.09344 0 0
3:53 am 03:53 Clear 77 25 34 1.1 21 21 Calm 29.68 1005 10 16.09344 0 0
4:53 am 04:53 Clear 74 23.3 36 2.2 25 25 NNW 5 7 29.71 1006 10 16.09344 0 0
5:53 am 05:53 Sunny 75 23.9 36 2.2 24 24 Calm 29.74 1007 10 16.09344 0 0
6:53 am 06:53 Sunny 78 25.6 36 2.2 22 22 Calm 29.74 1007 10 16.09344 0 0
7:53 am 07:53 Sunny 82 27.8 38 3.3 21 21 ENE 5 7 29.74 1007 10 16.09344 0 0
8:53 am 08:53 Sunny 85 29.4 35 1.7 17 17 ESE 9 15 29.77 1008 10 16.09344 0 0
9:53 am 09:53 Sunny 91 32.8 28 -2.2 10 10 S 15 24 29.74 1007 10 16.09344 0 0
10:53 am 10:53 Sunny 92 33.3 27 -2.8 10 10 SSW 14 22 29.74 1007 10 16.09344 0 0
11:53 am 11:53 Sunny 94 34.4 15 -9.4 5 5 S 20 31 29.74 1007 10 16.09344 0 0
12:53 pm 12:53 Sunny 96 35.6 17 -8.3 5 5 SW 18 30 29.71 1006 10 16.09344 0 0
1:53 pm 13:53 Sunny 97 36.1 19 -7.2 6 6 SSW 12 19 29.68 1005 10 16.09344 0 0
2:53 pm 14:53 Sunny 97 36.1 15 -9.4 5 5 S 8 13 29.68 1005 10 16.09344 0 0
3:53 pm 15:53 Sunny 99 37.2 15 -9.4 5 5 SSW 13 20 29.65 1004 10 16.09344 0 0
4:53 pm 16:53 Sunny 99 37.2 17 -8.3 5 5 S 14 22 29.65 1004 10 16.09344 0 0
5:53 pm 17:53 Sunny 98 36.7 16 -8.9 5 5 WSW 15 24 29.62 1003 10 16.09344 0 0
6:53 pm 18:53 Sunny 96 35.6 18 -7.8 6 6 SW 10 17 29.62 1003 10 16.09344 0 0
7:53 pm 19:53 Sunny 94 34.4 19 -7.2 6 6 SW 13 20 29.65 1004 10 16.09344 0 0
8:53 pm 20:53 Clear 92 33.3 17 -8.3 6 6 SSW 12 19 29.65 1004 10 16.09344 0 0
9:53 pm 21:53 Clear 90 32.2 19 -7.2 7 7 SSW 8 13 29.65 1004 10 16.09344 0 0
10:53 pm 22:53 Clear 87 30.6 18 -7.8 8 8 SSW 9 15 29.68 1005 10 16.09344 0 0
11:53 pm 23:53 Clear 85 29.4 18 -7.8 8 8 SSW 10 17 29.68 1005 10 16.09344 0 0

Powered by AerisWeather